Flag for Cote d'Ivoire (Ivory Coast) Weather past 2 weeks in Abidjan, Cote d'Ivoire (Ivory Coast)

Now
84 °F

Scattered clouds.


Feels Like: 96 °F
Forecast: N/A
Wind: 8 mph from South

Location: Abidjan Airport

Current Time: Mar 6, 2015 at 6:33:52 PM

Latest Report: Mar 6, 2015 at 6:00 PM


Visibility: N/A

Pressure: 29.80 "Hg

Humidity: 84%

Dew point: 79 °F

Location of AbidjanLocation

Historic Weather in Abidjan — Graph

°F

Abidjan temperature yesterday

Maximum temperature yesterday: 90 °F (at 12:30 PM)
Minimum temperature yesterday: 77 °F (at 5:30 AM)
Average temperature yesterday: 84 °F

Past Weeks' High & Low Weather Summary

 TemperatureHumidityPressure
High93 °F (Mar 1, 2:00 PM)100% (Feb 20, 7:30 AM)29.95 "Hg (Feb 20, 7:30 AM)
Low75 °F (Feb 20, 5:30 AM)44% (Mar 1, 2:00 PM)29.74 "Hg (Feb 20, 2:30 PM)
Average83 °F85%29.84 "Hg
* Reported Feb 19 5:00 PM — Mar 6 5:00 PM, Abidjan, Weather by CustomWeather, © 2015

Note: Actual official high and low records may vary slightly from our data, if they occured in-between our weather recording intervals... More about our weather records

Advertising

Abidjan weather history for previous 24 hours

 ConditionsComfort  
Time TempWeatherWind HumidityBarometerVisibility
5:00 PM
Fri, Mar 6
86 °FPassing clouds.8 mph79%29.77 "HgN/A
4:30 PM86 °FPassing clouds.10 mph79%29.74 "HgN/A
4:00 PM88 °FPassing clouds.10 mph70%29.77 "HgN/A
3:30 PM90 °FPassing clouds.9 mph67%29.77 "HgN/A
3:00 PM90 °FScattered clouds.9 mph67%29.80 "HgN/A
2:30 PM90 °FScattered clouds.9 mph67%29.80 "HgN/A
2:00 PM90 °FScattered clouds.9 mph67%29.83 "HgN/A
1:30 PM88 °FScattered clouds.9 mph70%29.83 "HgN/A
1:00 PM88 °FScattered clouds.9 mph70%29.86 "Hg5 mi
12:30 PM90 °FScattered clouds.7 mph67%29.86 "Hg4 mi
12:00 PM88 °FScattered clouds.6 mph70%29.89 "Hg4 mi
11:30 AM88 °FScattered clouds.7 mph70%29.89 "Hg4 mi
11:00 AM86 °FScattered clouds.5 mph75%29.89 "Hg4 mi
10:30 AM86 °FScattered clouds.5 mph75%29.89 "Hg4 mi
10:00 AM84 °FPassing clouds.3 mph79%29.89 "Hg4 mi
9:30 AM82 °FPassing clouds.5 mph84%29.89 "Hg4 mi
9:00 AM81 °FPassing clouds.6 mph89%29.89 "Hg4 mi
8:30 AM79 °FScattered clouds.6 mph89%29.86 "Hg4 mi
8:00 AM77 °FScattered clouds.6 mph94%29.86 "Hg4 mi
7:30 AM77 °FScattered clouds.5 mph94%29.86 "Hg4 mi
7:00 AM77 °FScattered clouds.6 mph100%29.86 "Hg4 mi
6:30 AM77 °FScattered clouds.5 mph100%29.83 "Hg4 mi
6:00 AM79 °FPassing clouds.2 mph94%29.83 "HgN/A
5:30 AM77 °FPassing clouds.2 mph94%29.83 "HgN/A
5:00 AM77 °FPassing clouds.3 mph100%29.80 "HgN/A
4:30 AM79 °FPassing clouds.2 mph94%29.80 "HgN/A
4:00 AM77 °FPassing clouds.5 mph94%29.80 "HgN/A
3:30 AM77 °FPassing clouds.2 mph100%29.80 "HgN/A
3:00 AM77 °FPassing clouds.3 mph100%29.80 "HgN/A
2:30 AM77 °FPassing clouds.6 mph94%29.80 "HgN/A
2:00 AM77 °FPassing clouds.2 mph94%29.83 "HgN/A
1:30 AM77 °FPassing clouds.2 mph94%29.83 "HgN/A
1:00 AM77 °FThunderstorms. Passing clouds.6 mph89%29.83 "HgN/A
12:30 AM75 °FThunderstorms. Passing clouds.3 mph94%29.86 "HgN/A
12:00 AM75 °FThunderstorms. Passing clouds.7 mph94%29.89 "Hg5 mi
11:30 PM
Thu, Mar 5
77 °FThunderstorms. Passing clouds.7 mph83%29.89 "Hg5 mi
11:00 PM82 °FPassing clouds.2 mph84%29.89 "HgN/A
10:30 PM82 °FThunderstorms. Passing clouds.2 mph89%29.89 "HgN/A
10:02 PM82 °FThunderstorms. Passing clouds.5 mph89%29.89 "HgN/A
9:30 PM82 °FPassing clouds.6 mph89%29.86 "HgN/A
8:30 PM84 °FPassing clouds.6 mph84%29.86 "HgN/A
8:00 PM84 °FPassing clouds.7 mph84%29.83 "Hg5 mi
7:30 PM84 °FPassing clouds.7 mph84%29.80 "Hg5 mi
7:00 PM84 °FPassing clouds.8 mph84%29.80 "Hg5 mi
6:30 PM84 °FPassing clouds.8 mph79%29.80 "Hg5 mi
6:00 PM84 °FScattered clouds.9 mph79%29.77 "Hg5 mi
Weather by CustomWeather, © 2015

See weather overviewHow to use our weather pages